Back to catalog

STARLINK-30081

AliveCommunicationsVLEO
NORAD 57515·PAYLOAD·🇺🇸 United States

Launched Aug 7, 2023 from Cape Canaveral Space Force Station

Loading…

Next Passes (next 24 hours)

TLE

FreshSource: CelesTrak SupGP

Epoch: Sep 14, 2026, 21:24 UTC

1 57515C 23113W   26257.89215278  .00047814  00000+0  17318-2 0  2579
2 57515  43.0041  27.2462 0001724 274.1096 134.6896 15.27554426    12

Track STARLINK-30081 in real time with AllMySat

Download on the App Store